Time,TemperatureF,DewpointF,PressureIn,WindDirection,WindDirectionDegrees,WindSpeedMPH,WindSpeedGustMPH,Humidity,HourlyPrecipIn,Conditions,Clouds,dailyrainin,SoftwareType,DateUTC
2016-02-10 00:02:00,55.8,25.5,30.14,SW,225,1.1,3.6,31,0.00,,,0.00,WUHU216HW,2016-02-10 07:02:00,
2016-02-10 00:07:00,55.8,24.9,30.14,WSW,248,2.5,2.5,30,0.00,,,0.00,WUHU216HW,2016-02-10 07:07:00,
2016-02-10 00:17:00,55.6,25.4,30.14,WNW,293,0.0,2.0,31,0.00,,,0.00,WUHU216HW,2016-02-10 07:17:00,
2016-02-10 00:22:00,55.4,24.5,30.15,NW,315,1.8,1.8,30,0.00,,,0.00,WUHU216HW,2016-02-10 07:22:00,
2016-02-10 00:27:00,55.4,25.2,30.14,NW,315,0.0,1.8,31,0.00,,,0.00,WUHU216HW,2016-02-10 07:27:00,
2016-02-10 00:32:00,55.3,25.0,30.14,WNW,293,1.6,1.8,31,0.00,,,0.00,WUHU216HW,2016-02-10 07:32:00,
2016-02-10 00:37:00,55.1,24.9,30.15,WSW,248,0.9,1.6,31,0.00,,,0.00,WUHU216HW,2016-02-10 07:37:00,
2016-02-10 00:42:00,54.9,24.8,30.15,NNW,338,1.1,1.6,31,0.00,,,0.00,WUHU216HW,2016-02-10 07:42:00,
2016-02-10 00:47:00,54.7,25.3,30.15,WNW,293,0.7,1.6,32,0.00,,,0.00,WUHU216HW,2016-02-10 07:47:00,
2016-02-10 00:52:00,54.4,25.0,30.15,NW,315,0.9,2.2,32,0.00,,,0.00,WUHU216HW,2016-02-10 07:52:00,
2016-02-10 00:57:00,54.4,25.0,30.15,NW,315,1.1,2.2,32,0.00,,,0.00,WUHU216HW,2016-02-10 07:57:00,
2016-02-10 01:02:00,54.4,25.0,30.15,NNE,23,0.0,1.8,32,0.00,,,0.00,WUHU216HW,2016-02-10 08:02:00,
2016-02-10 01:07:00,54.2,24.8,30.15,NNE,23,1.3,2.0,32,0.00,,,0.00,WUHU216HW,2016-02-10 08:07:00,
2016-02-10 01:12:00,54.0,24.7,30.15,NE,45,0.9,2.0,32,0.00,,,0.00,WUHU216HW,2016-02-10 08:12:00,
2016-02-10 01:17:00,53.6,25.1,30.15,NNE,23,0.4,1.3,33,0.00,,,0.00,WUHU216HW,2016-02-10 08:17:00,
2016-02-10 01:22:00,53.3,24.8,30.15,NNW,338,0.0,0.9,33,0.00,,,0.00,WUHU216HW,2016-02-10 08:22:00,
2016-02-10 01:27:00,53.1,24.6,30.15,North,0,0.4,0.7,33,0.00,,,0.00,WUHU216HW,2016-02-10 08:27:00,
2016-02-10 01:32:00,52.7,24.9,30.15,NNE,23,1.1,1.1,34,0.00,,,0.00,WUHU216HW,2016-02-10 08:32:00,
2016-02-10 01:37:00,52.4,24.7,30.15,NW,315,0.0,1.8,34,0.00,,,0.00,WUHU216HW,2016-02-10 08:37:00,
2016-02-10 01:42:00,52.0,24.3,30.15,NW,315,0.2,1.8,34,0.00,,,0.00,WUHU216HW,2016-02-10 08:42:00,
2016-02-10 01:47:00,51.8,25.6,30.15,NNE,23,0.9,1.6,36,0.00,,,0.00,WUHU216HW,2016-02-10 08:47:00,
2016-02-10 01:52:00,51.7,25.4,30.15,NNE,23,0.0,1.6,36,0.00,,,0.00,WUHU216HW,2016-02-10 08:52:00,
2016-02-10 01:57:00,51.5,25.2,30.15,North,0,1.8,2.5,36,0.00,,,0.00,WUHU216HW,2016-02-10 08:57:00,
2016-02-10 02:02:00,51.1,24.8,30.15,ENE,68,0.0,2.5,36,0.00,,,0.00,WUHU216HW,2016-02-10 09:02:00,
2016-02-10 02:07:00,51.1,25.6,30.15,North,0,0.0,1.6,37,0.00,,,0.00,WUHU216HW,2016-02-10 09:07:00,
2016-02-10 02:12:00,50.8,25.2,30.15,North,0,0.7,1.1,37,0.00,,,0.00,WUHU216HW,2016-02-10 09:12:00,
2016-02-10 02:17:00,50.6,25.1,30.15,WNW,293,0.0,1.6,37,0.00,,,0.00,WUHU216HW,2016-02-10 09:17:00,
2016-02-10 02:22:00,50.4,24.9,30.15,North,0,1.1,1.6,37,0.00,,,0.00,WUHU216HW,2016-02-10 09:22:00,
2016-02-10 02:27:00,50.0,25.3,30.15,NE,45,1.8,1.8,38,0.00,,,0.00,WUHU216HW,2016-02-10 09:27:00,
2016-02-10 02:32:00,50.0,25.3,30.15,NNW,338,0.4,1.8,38,0.00,,,0.00,WUHU216HW,2016-02-10 09:32:00,
2016-02-10 02:37:00,49.9,25.1,30.15,NNW,338,0.0,1.6,38,0.00,,,0.00,WUHU216HW,2016-02-10 09:37:00,
2016-02-10 02:42:00,49.7,24.9,30.15,NNW,338,0.7,1.1,38,0.00,,,0.00,WUHU216HW,2016-02-10 09:42:00,
2016-02-10 02:47:00,49.5,24.9,30.15,NNE,23,2.7,2.7,38,0.00,,,0.00,WUHU216HW,2016-02-10 09:47:00,
2016-02-10 02:52:00,49.3,24.7,30.15,NNW,338,0.0,2.7,38,0.00,,,0.00,WUHU216HW,2016-02-10 09:52:00,
2016-02-10 02:57:00,49.1,24.5,30.15,North,0,3.4,3.4,38,0.00,,,0.00,WUHU216HW,2016-02-10 09:57:00,
2016-02-10 03:02:00,49.0,24.3,30.15,North,0,1.1,3.4,38,0.00,,,0.00,WUHU216HW,2016-02-10 10:02:00,
2016-02-10 03:07:00,49.0,25.0,30.15,SSW,203,0.0,2.5,39,0.00,,,0.00,WUHU216HW,2016-02-10 10:07:00,
2016-02-10 03:12:00,49.0,25.0,30.15,North,0,0.0,1.6,39,0.00,,,0.00,WUHU216HW,2016-02-10 10:12:00,
2016-02-10 03:17:00,49.0,25.0,30.15,NNE,23,1.6,1.8,39,0.00,,,0.00,WUHU216HW,2016-02-10 10:17:00,
2016-02-10 03:22:00,48.8,24.9,30.15,North,0,1.1,1.8,39,0.00,,,0.00,WUHU216HW,2016-02-10 10:22:00,
2016-02-10 03:27:00,48.8,24.9,30.14,NNE,23,1.8,1.8,39,0.00,,,0.00,WUHU216HW,2016-02-10 10:27:00,
2016-02-10 03:32:00,48.8,24.9,30.15,East,90,0.2,1.8,39,0.00,,,0.00,WUHU216HW,2016-02-10 10:32:00,
2016-02-10 03:37:00,48.8,24.9,30.15,NW,315,1.3,1.3,39,0.00,,,0.00,WUHU216HW,2016-02-10 10:37:00,
2016-02-10 03:42:00,48.6,24.7,30.15,NNW,338,0.7,2.7,39,0.00,,,0.00,WUHU216HW,2016-02-10 10:42:00,
2016-02-10 03:47:00,48.6,24.7,30.14,South,180,1.1,2.7,39,0.00,,,0.00,WUHU216HW,2016-02-10 10:47:00,
2016-02-10 03:52:00,48.6,24.7,30.14,NW,315,0.7,1.8,39,0.00,,,0.00,WUHU216HW,2016-02-10 10:52:00,
2016-02-10 03:57:00,48.6,24.7,30.14,SSW,203,0.0,1.1,39,0.00,,,0.00,WUHU216HW,2016-02-10 10:57:00,
2016-02-10 04:02:00,48.4,24.5,30.14,NNW,338,0.4,1.8,39,0.00,,,0.00,WUHU216HW,2016-02-10 11:02:00,
2016-02-10 04:07:00,48.6,24.7,30.14,ENE,68,0.9,1.8,39,0.00,,,0.00,WUHU216HW,2016-02-10 11:07:00,
2016-02-10 04:12:00,48.6,24.7,30.14,North,0,0.9,1.6,39,0.00,,,0.00,WUHU216HW,2016-02-10 11:12:00,
2016-02-10 04:17:00,48.6,24.7,30.14,NW,315,1.1,1.1,39,0.00,,,0.00,WUHU216HW,2016-02-10 11:17:00,
2016-02-10 04:22:00,48.6,24.7,30.14,NNW,338,0.4,2.7,39,0.00,,,0.00,WUHU216HW,2016-02-10 11:22:00,
2016-02-10 04:27:00,48.6,24.7,30.14,NNE,23,1.6,2.7,39,0.00,,,0.00,WUHU216HW,2016-02-10 11:27:00,
2016-02-10 04:32:00,48.6,24.7,30.14,North,0,0.0,2.0,39,0.00,,,0.00,WUHU216HW,2016-02-10 11:32:00,
2016-02-10 04:37:00,48.6,24.7,30.14,North,0,0.4,1.3,39,0.00,,,0.00,WUHU216HW,2016-02-10 11:37:00,
2016-02-10 04:42:00,48.6,25.4,30.15,NNE,23,0.0,1.1,40,0.00,,,0.00,WUHU216HW,2016-02-10 11:42:00,
2016-02-10 04:47:00,48.4,25.2,30.15,NE,45,1.8,1.8,40,0.00,,,0.00,WUHU216HW,2016-02-10 11:47:00,
2016-02-10 04:52:00,48.2,25.0,30.15,NNW,338,0.0,1.8,40,0.00,,,0.00,WUHU216HW,2016-02-10 11:52:00,
2016-02-10 04:57:00,48.2,25.0,30.15,NW,315,0.0,1.1,40,0.00,,,0.00,WUHU216HW,2016-02-10 11:57:00,
2016-02-10 05:02:00,48.2,25.0,30.15,NW,315,0.4,1.1,40,0.00,,,0.00,WUHU216HW,2016-02-10 12:02:00,
2016-02-10 05:07:00,48.1,24.8,30.16,West,270,0.9,1.6,40,0.00,,,0.00,WUHU216HW,2016-02-10 12:07:00,
2016-02-10 05:12:00,48.1,24.8,30.16,NNW,338,0.2,1.8,40,0.00,,,0.00,WUHU216HW,2016-02-10 12:12:00,
2016-02-10 05:17:00,48.1,24.8,30.16,WNW,293,0.0,1.8,40,0.00,,,0.00,WUHU216HW,2016-02-10 12:17:00,
2016-02-10 05:22:00,48.2,25.0,30.16,SSW,203,1.1,1.8,40,0.00,,,0.00,WUHU216HW,2016-02-10 12:22:00,
2016-02-10 05:27:00,48.4,25.2,30.16,SW,225,0.4,1.1,40,0.00,,,0.00,WUHU216HW,2016-02-10 12:27:00,
2016-02-10 05:32:00,48.4,25.2,30.16,NW,315,0.0,1.1,40,0.00,,,0.00,WUHU216HW,2016-02-10 12:32:00,
2016-02-10 05:37:00,48.4,25.2,30.16,SW,225,0.7,1.1,40,0.00,,,0.00,WUHU216HW,2016-02-10 12:37:00,
2016-02-10 05:42:00,48.2,25.0,30.17,West,270,1.8,2.5,40,0.00,,,0.00,WUHU216HW,2016-02-10 12:42:00,
2016-02-10 05:47:00,48.2,25.0,30.17,SSW,203,1.1,2.5,40,0.00,,,0.00,WUHU216HW,2016-02-10 12:47:00,
2016-02-10 05:52:00,48.4,25.2,30.17,ENE,68,0.4,1.6,40,0.00,,,0.00,WUHU216HW,2016-02-10 12:52:00,
2016-02-10 05:57:00,48.6,25.4,30.17,North,0,0.0,1.1,40,0.00,,,0.00,WUHU216HW,2016-02-10 12:57:00,
2016-02-10 06:02:00,48.8,25.5,30.17,NW,315,1.1,1.1,40,0.00,,,0.00,WUHU216HW,2016-02-10 13:02:00,
2016-02-10 06:07:00,48.8,25.5,30.17,WSW,248,1.1,1.1,40,0.00,,,0.00,WUHU216HW,2016-02-10 13:07:00,
2016-02-10 06:12:00,48.8,24.9,30.17,WSW,248,1.3,1.3,39,0.00,,,0.00,WUHU216HW,2016-02-10 13:12:00,
2016-02-10 06:17:00,48.6,25.4,30.18,WSW,248,0.7,1.3,40,0.00,,,0.00,WUHU216HW,2016-02-10 13:17:00,
2016-02-10 06:27:00,48.6,25.4,30.18,WSW,248,1.1,1.8,40,0.00,,,0.00,WUHU216HW,2016-02-10 13:27:00,
2016-02-10 06:32:00,48.6,24.7,30.18,South,180,1.8,2.0,39,0.00,,,0.00,WUHU216HW,2016-02-10 13:32:00,
2016-02-10 06:37:00,48.6,24.7,30.18,WSW,248,0.9,2.0,39,0.00,,,0.00,WUHU216HW,2016-02-10 13:37:00,
2016-02-10 06:42:00,48.6,24.7,30.18,West,270,0.4,2.0,39,0.00,,,0.00,WUHU216HW,2016-02-10 13:42:00,
2016-02-10 06:47:00,48.6,24.7,30.19,West,270,0.2,1.6,39,0.00,,,0.00,WUHU216HW,2016-02-10 13:47:00,
2016-02-10 06:52:00,48.6,24.7,30.18,WNW,293,1.6,2.9,39,0.00,,,0.00,WUHU216HW,2016-02-10 13:52:00,
2016-02-10 06:57:00,48.4,24.5,30.18,NNW,338,1.6,2.9,39,0.00,,,0.00,WUHU216HW,2016-02-10 13:57:00,
2016-02-10 07:07:00,48.2,24.4,30.19,SSW,203,0.7,2.5,39,0.00,,,0.00,WUHU216HW,2016-02-10 14:07:00,
2016-02-10 07:12:00,48.2,24.4,30.19,NW,315,1.6,1.6,39,0.00,,,0.00,WUHU216HW,2016-02-10 14:12:00,
2016-02-10 07:17:00,48.1,24.8,30.19,North,0,0.4,1.6,40,0.00,,,0.00,WUHU216HW,2016-02-10 14:17:00,
2016-02-10 07:22:00,47.9,24.7,30.19,West,270,2.2,2.2,40,0.00,,,0.00,WUHU216HW,2016-02-10 14:22:00,
2016-02-10 07:27:00,47.9,24.7,30.19,SSW,203,0.9,2.2,40,0.00,,,0.00,WUHU216HW,2016-02-10 14:27:00,
2016-02-10 07:37:00,47.9,25.2,30.19,NW,315,0.4,1.1,41,0.00,,,0.00,WUHU216HW,2016-02-10 14:37:00,
2016-02-10 07:42:00,47.9,25.2,30.20,SSW,203,1.3,1.3,41,0.00,,,0.00,WUHU216HW,2016-02-10 14:42:00,
2016-02-10 07:47:00,48.2,25.6,30.19,NNW,338,0.0,1.6,41,0.00,,,0.00,WUHU216HW,2016-02-10 14:47:00,
2016-02-10 07:52:00,48.4,25.8,30.19,SSW,203,0.4,1.6,41,0.00,,,0.00,WUHU216HW,2016-02-10 14:52:00,
2016-02-10 07:57:00,48.8,25.5,30.19,SE,135,1.6,1.6,40,0.00,,,0.00,WUHU216HW,2016-02-10 14:57:00,
2016-02-10 08:02:00,49.3,26.0,30.19,East,90,0.4,1.6,40,0.00,,,0.00,WUHU216HW,2016-02-10 15:02:00,
2016-02-10 08:07:00,50.0,25.9,30.20,SSE,158,2.2,2.2,39,0.00,,,0.00,WUHU216HW,2016-02-10 15:07:00,
2016-02-10 08:12:00,50.8,26.7,30.19,SSW,203,2.5,2.5,39,0.00,,,0.00,WUHU216HW,2016-02-10 15:12:00,
2016-02-10 08:17:00,51.7,26.7,30.19,SSE,158,1.6,2.9,38,0.00,,,0.00,WUHU216HW,2016-02-10 15:17:00,
2016-02-10 08:22:00,52.7,27.0,30.19,SSE,158,3.1,3.1,37,0.00,,,0.00,WUHU216HW,2016-02-10 15:22:00,
2016-02-10 08:27:00,54.0,27.5,30.19,SE,135,2.2,5.1,36,0.00,,,0.00,WUHU216HW,2016-02-10 15:27:00,
2016-02-10 08:32:00,56.0,27.1,30.19,SE,135,6.9,6.9,33,0.00,,,0.00,WUHU216HW,2016-02-10 15:32:00,
2016-02-10 08:37:00,58.0,28.2,30.19,ESE,113,6.3,8.3,32,0.00,,,0.00,WUHU216HW,2016-02-10 15:37:00,
2016-02-10 08:42:00,59.6,28.9,30.19,SSE,158,5.4,8.5,31,0.00,,,0.00,WUHU216HW,2016-02-10 15:42:00,
2016-02-10 08:47:00,60.8,28.2,30.20,SE,135,8.3,8.5,29,0.00,,,0.00,WUHU216HW,2016-02-10 15:47:00,